TimeCDT,TemperatureF,Dew PointF,Humidity,Sea Level PressureIn,VisibilityMPH,Wind Direction,Wind SpeedMPH,Gust SpeedMPH,PrecipitationIn,Events,Conditions,WindDirDegrees,DateUTC
12:15 AM,72.7,67.1,83,29.83,10.0,SSE,5.8,-,N/A,,Clear,150,2013-06-12 05:15:00
12:35 AM,71.4,66.2,84,29.83,10.0,SE,4.6,-,N/A,,Clear,130,2013-06-12 05:35:00
12:55 AM,70.2,66.0,87,29.84,10.0,NE,8.1,-,N/A,,Clear,50,2013-06-12 05:55:00
1:15 AM,73.6,68.0,83,29.85,10.0,East,5.8,-,N/A,,Clear,80,2013-06-12 06:15:00
1:35 AM,72.7,67.3,83,29.84,10.0,ESE,5.8,-,N/A,,Clear,120,2013-06-12 06:35:00
1:55 AM,74.3,68.7,83,29.84,10.0,East,8.1,-,N/A,,Clear,100,2013-06-12 06:55:00
2:15 AM,72.7,67.1,83,29.79,10.0,ESE,12.7,-,N/A,,Clear,120,2013-06-12 07:15:00
2:35 AM,73.2,67.6,83,29.79,10.0,SSE,11.5,-,N/A,,Clear,150,2013-06-12 07:35:00
2:55 AM,75.2,69.1,81,29.81,10.0,South,3.5,-,N/A,,Clear,190,2013-06-12 07:55:00
3:15 AM,72.3,67.1,84,29.82,10.0,North,5.8,-,N/A,,Clear,10,2013-06-12 08:15:00
3:35 AM,70.2,66.2,87,29.81,10.0,NE,4.6,-,N/A,,Clear,50,2013-06-12 08:35:00
3:55 AM,70.2,66.2,87,29.83,10.0,ENE,6.9,-,N/A,,Clear,60,2013-06-12 08:55:00
4:15 AM,71.6,66.6,84,29.83,10.0,ENE,6.9,-,N/A,,Clear,60,2013-06-12 09:15:00
4:35 AM,72.0,66.9,84,29.84,10.0,ESE,5.8,-,N/A,,Clear,110,2013-06-12 09:35:00
4:55 AM,71.1,66.2,85,29.87,10.0,Calm,Calm,-,N/A,,Clear,0,2013-06-12 09:55:00
5:15 AM,70.2,65.7,86,29.87,10.0,East,3.5,-,N/A,,Scattered Clouds,100,2013-06-12 10:15:00
5:35 AM,70.2,66.2,87,29.86,10.0,East,5.8,-,N/A,,Scattered Clouds,100,2013-06-12 10:35:00
5:55 AM,70.2,65.5,85,29.87,10.0,East,4.6,-,N/A,,Clear,100,2013-06-12 10:55:00
6:15 AM,70.2,65.7,86,29.89,10.0,East,4.6,-,N/A,,Clear,80,2013-06-12 11:15:00
6:35 AM,70.2,65.5,85,29.89,10.0,NE,8.1,-,N/A,,Scattered Clouds,50,2013-06-12 11:35:00
6:55 AM,70.2,64.9,83,29.89,10.0,ENE,8.1,-,N/A,,Scattered Clouds,70,2013-06-12 11:55:00
7:15 AM,70.2,65.5,85,29.85,7.0,ESE,18.4,-,N/A,Rain,Light Rain,110,2013-06-12 12:15:00
7:35 AM,70.2,65.7,86,29.76,7.0,ESE,25.3,31.1,N/A,Rain,Light Rain,120,2013-06-12 12:35:00
7:55 AM,70.2,65.3,85,29.75,10.0,ESE,16.1,28.8,N/A,,Clear,110,2013-06-12 12:55:00
8:15 AM,70.2,65.3,85,29.77,10.0,ESE,12.7,-,N/A,,Clear,120,2013-06-12 13:15:00
8:35 AM,74.5,67.8,80,29.76,10.0,ESE,13.8,18.4,N/A,,Clear,120,2013-06-12 13:35:00
8:55 AM,75.2,67.8,78,29.75,10.0,ESE,12.7,-,N/A,,Clear,120,2013-06-12 13:55:00
9:15 AM,75.2,67.5,77,29.75,10.0,SSE,11.5,20.7,N/A,,Clear,160,2013-06-12 14:15:00
9:35 AM,75.2,67.8,78,29.77,10.0,South,6.9,-,N/A,Rain,Light Rain,180,2013-06-12 14:35:00
9:55 AM,75.2,67.1,76,29.75,10.0,South,9.2,-,N/A,,Clear,180,2013-06-12 14:55:00
10:15 AM,79.5,69.6,72,29.74,10.0,South,15.0,-,N/A,,Clear,190,2013-06-12 15:15:00
10:35 AM,80.2,69.3,69,29.73,10.0,South,16.1,23.0,N/A,,Clear,180,2013-06-12 15:35:00
10:55 AM,82.2,69.3,65,29.72,10.0,SSW,12.7,20.7,N/A,,Clear,200,2013-06-12 15:55:00
11:15 AM,85.8,69.6,58,29.73,10.0,SSW,11.5,18.4,N/A,,Clear,210,2013-06-12 16:15:00
11:35 AM,87.8,70.9,57,29.74,10.0,SSW,9.2,18.4,N/A,,Clear,210,2013-06-12 16:35:00
11:55 AM,88.2,70.2,55,29.74,10.0,SW,11.5,17.3,N/A,,Clear,220,2013-06-12 16:55:00
12:15 PM,84.9,68.5,58,29.74,10.0,SW,8.1,-,N/A,,Scattered Clouds,220,2013-06-12 17:15:00
12:35 PM,84.2,68.2,58,29.73,10.0,SSW,9.2,-,N/A,,Scattered Clouds,210,2013-06-12 17:35:00
12:55 PM,85.1,68.7,58,29.73,10.0,WSW,10.4,-,N/A,,Scattered Clouds,240,2013-06-12 17:55:00
1:15 PM,83.5,68.4,60,29.74,10.0,SW,8.1,-,N/A,,Mostly Cloudy,220,2013-06-12 18:15:00
1:35 PM,85.6,69.3,58,29.73,10.0,WSW,12.7,-,N/A,,Scattered Clouds,240,2013-06-12 18:35:00
1:55 PM,87.8,70.5,56,29.73,10.0,WSW,12.7,17.3,N/A,,Scattered Clouds,240,2013-06-12 18:55:00
2:15 PM,85.3,68.5,57,29.72,10.0,SW,9.2,-,N/A,,Scattered Clouds,230,2013-06-12 19:15:00
2:35 PM,88.2,70.7,56,29.71,10.0,SSW,8.1,-,N/A,,Clear,210,2013-06-12 19:35:00
4:55 PM,87.8,70.0,55,29.64,-9999.0,WSW,9.2,-,N/A,,Unknown,240,2013-06-12 21:55:00
5:15 PM,88.2,69.8,54,29.65,10.0,West,9.2,-,N/A,,Scattered Clouds,270,2013-06-12 22:15:00
5:35 PM,89.8,70.7,53,29.65,10.0,WSW,13.8,20.7,N/A,,Scattered Clouds,250,2013-06-12 22:35:00
5:55 PM,90.5,69.6,50,29.64,10.0,West,13.8,19.6,N/A,,Clear,270,2013-06-12 22:55:00
6:15 PM,89.4,68.7,50,29.63,10.0,West,15.0,21.9,N/A,,Clear,270,2013-06-12 23:15:00
6:35 PM,87.8,68.7,53,29.63,10.0,West,12.7,18.4,N/A,,Clear,270,2013-06-12 23:35:00
6:55 PM,85.3,66.9,54,29.63,10.0,WNW,17.3,23.0,N/A,,Clear,290,2013-06-12 23:55:00
7:15 PM,82.0,68.5,63,29.65,10.0,WNW,20.7,29.9,N/A,,Scattered Clouds,300,2013-06-13 00:15:00
7:35 PM,81.5,67.5,62,29.67,10.0,WNW,25.3,34.5,N/A,,Scattered Clouds,300,2013-06-13 00:35:00
7:55 PM,80.2,67.8,66,29.69,10.0,WNW,19.6,35.7,N/A,,Scattered Clouds,300,2013-06-13 00:55:00
8:15 PM,75.7,66.7,74,29.70,10.0,WNW,18.4,34.5,N/A,,Mostly Cloudy,300,2013-06-13 01:15:00
8:35 PM,75.2,66.4,74,29.70,10.0,WNW,17.3,23.0,N/A,,Scattered Clouds,290,2013-06-13 01:35:00
8:55 PM,75.2,66.7,75,29.69,10.0,West,15.0,19.6,N/A,,Scattered Clouds,280,2013-06-13 01:55:00
9:15 PM,75.2,66.7,75,29.69,10.0,West,15.0,18.4,N/A,,Mostly Cloudy,280,2013-06-13 02:15:00
9:35 PM,72.7,65.1,77,29.70,10.0,West,15.0,25.3,N/A,,Overcast,280,2013-06-13 02:35:00
9:55 PM,70.2,63.0,78,29.71,10.0,West,13.8,20.7,N/A,,Overcast,270,2013-06-13 02:55:00
10:15 PM,70.2,64.6,82,29.71,10.0,West,12.7,20.7,N/A,Rain,Rain,280,2013-06-13 03:15:00
10:35 PM,70.2,67.1,90,29.71,5.0,NNW,6.9,-,0.09,Rain,Heavy Rain,340,2013-06-13 03:35:00
10:55 PM,70.2,67.5,91,29.72,3.0,NNE,16.1,26.5,0.22,Rain,Heavy Rain,20,2013-06-13 03:55:00
11:15 PM,70.2,67.1,90,29.75,10.0,NNE,16.1,24.2,0.02,Rain,Light Rain,20,2013-06-13 04:15:00
11:35 PM,70.2,67.1,90,29.76,10.0,NNE,15.0,-,0.02,Rain,Light Rain,20,2013-06-13 04:35:00
11:55 PM,70.2,66.4,88,29.79,10.0,North,17.3,24.2,0.02,,Overcast,360,2013-06-13 04:55:00